Sturgis, MI

8:13 AM EDT on July 23, 2017 (GMT -0400)
Kirsch Municipal

Weather History for KIRS - August, 2014

Change the Weather History Date:

Thursday, August 28, 2014

  Actual Average (KHAI) Record (KHAI)
Temperature  
Mean Temperature 66 °F -  
Max Temperature 77 °F 81 °F 95 °F (1948)
Min Temperature 55 °F 59 °F 39 °F (1982)
Cooling Degree Days 1    
Growing Degree Days 16 (Base 50)    
Moisture  
Dew Point 59 °F    
Average Humidity 81    
Maximum Humidity 100    
Minimum Humidity 50    
Precipitation  
Precipitation 0.00 in - - ()
Sea Level Pressure  
Sea Level Pressure 30.12 in    
Wind  
Wind Speed 5 mph (NE)    
Max Wind Speed 8 mph    
Max Gust Speed -    
Visibility 10 miles    
Events      
Averages and records for this station are not official NWS values.
T = Trace of Precipitation, MM = Missing Value Source: NWS Daily Summary

Daily Weather History Graph

Daily Weather History Graph

Search for Another Location

Airport or City:

Trip Planner

Search our weather history database for the weather conditions in past years. The results will help you decide how hot, cold, wet, or windy it might be!

Date:

Astronomy

Aug. 28, 2014 Rise Set
Actual Time 7:03 AM EDT 8:21 PM EDT
Civil Twilight 6:34 AM EDT 8:50 PM EDT
Nautical Twilight 5:59 AM EDT 9:25 PM EDT
Astronomical Twilight 5:23 AM EDT 10:01 PM EDT
Moon 9:58 AM EDT (8/28) 9:41 PM EDT (8/28)
Length of Visible Light 14h 15m
Length of Day
13h 18m
Waxing Crescent, 8% of the Moon is Illuminated
Aug 28
Waxing Crescent
Sep 2
First Quarter
Sep 8
Full
Sep 15
Last Quarter
Sep 24
New

Hourly Weather History & Observations

Time (EDT) Temp. Dew Point Humidity Pressure Visibility Wind Dir Wind Speed Gust Speed Precip Events Conditions
12:14 AM 62.6 °F 60.8 °F 94% 30.13 in 10.0 mi North 4.6 mph - N/A   Clear
12:34 AM 62.6 °F 60.8 °F 94% 30.12 in 10.0 mi North 5.8 mph - N/A   Clear
1:14 AM 62.6 °F 60.8 °F 94% 30.12 in 10.0 mi NNE 8.1 mph - N/A   Clear
1:34 AM 62.6 °F 60.8 °F 94% 30.12 in 10.0 mi NNE 5.8 mph - N/A   Clear
1:55 AM 60.8 °F 59.0 °F 94% 30.12 in 10.0 mi NNE 5.8 mph - N/A   Clear
2:14 AM 60.8 °F 59.0 °F 94% 30.12 in 10.0 mi North 5.8 mph - N/A   Clear
2:34 AM 60.8 °F 57.2 °F 88% 30.12 in 10.0 mi NNE 4.6 mph - N/A   Clear
2:55 AM 60.8 °F 57.2 °F 88% 30.13 in 10.0 mi NNE 4.6 mph - N/A   Clear
3:14 AM 60.8 °F 57.2 °F 88% 30.13 in 10.0 mi NNE 4.6 mph - N/A   Clear
3:35 AM 60.8 °F 57.2 °F 88% 30.13 in 10.0 mi NNE 4.6 mph - N/A   Clear
3:54 AM 59.0 °F 55.4 °F 88% 30.13 in 10.0 mi NNE 5.8 mph - N/A   Clear
4:15 AM 59.0 °F 55.4 °F 88% 30.13 in 10.0 mi NNE 3.5 mph - N/A   Clear
4:35 AM 57.2 °F 55.4 °F 94% 30.13 in 10.0 mi Calm Calm - N/A   Clear
4:55 AM 57.2 °F 55.4 °F 94% 30.13 in 10.0 mi NNE 4.6 mph - N/A   Clear
5:15 AM 57.2 °F 55.4 °F 94% 30.13 in 10.0 mi NNE 4.6 mph - N/A   Clear
5:35 AM 57.2 °F 55.4 °F 94% 30.13 in 10.0 mi NNE 4.6 mph - N/A   Clear
5:54 AM 57.2 °F 55.4 °F 94% 30.14 in 10.0 mi NE 4.6 mph - N/A   Clear
6:15 AM 55.4 °F 53.6 °F 94% 30.14 in 10.0 mi Calm Calm - N/A   Clear
6:34 AM 55.4 °F 53.6 °F 94% 30.14 in 10.0 mi NE 5.8 mph - N/A   Clear
6:55 AM 55.4 °F 53.6 °F 94% 30.15 in 10.0 mi NE 3.5 mph - N/A   Clear
7:15 AM 55.4 °F 53.6 °F 94% 30.15 in 10.0 mi NE 3.5 mph - N/A   Scattered Clouds
7:34 AM 55.4 °F 55.4 °F 100% 30.15 in 7.0 mi ENE 4.6 mph - N/A   Mostly Cloudy
7:55 AM 55.4 °F 55.4 °F 100% 30.15 in 2.0 mi NE 4.6 mph - N/A   Overcast
8:15 AM 57.2 °F 55.4 °F 94% 30.15 in 1.8 mi NE 4.6 mph - N/A   Overcast
8:34 AM 57.2 °F 57.2 °F 100% 30.15 in 4.0 mi NE 4.6 mph - N/A   Overcast
8:55 AM 59.0 °F 57.2 °F 94% 30.15 in 7.0 mi NE 3.5 mph - N/A   Mostly Cloudy
9:15 AM 60.8 °F 59.0 °F 94% 30.15 in 10.0 mi NE 6.9 mph - N/A   Clear
9:34 AM 62.6 °F 59.0 °F 88% 30.15 in 10.0 mi ENE 6.9 mph - N/A   Scattered Clouds
9:55 AM - - N/A% 30.15 in - NE 5.8 mph - N/A   Unknown
10:15 AM 64.4 °F 60.8 °F 88% 30.16 in 10.0 mi East 5.8 mph - N/A   Overcast
10:34 AM 64.4 °F 60.8 °F 88% 30.16 in 10.0 mi ESE 4.6 mph - N/A   Overcast
10:55 AM 66.2 °F 60.8 °F 83% 30.15 in 10.0 mi ENE 4.6 mph - N/A   Overcast
11:15 AM 66.2 °F 62.6 °F 88% 30.15 in 10.0 mi East 4.6 mph - N/A   Overcast
11:34 AM 69.8 °F 62.6 °F 78% 30.15 in 10.0 mi East 5.8 mph - N/A   Mostly Cloudy
11:55 AM 69.8 °F 62.6 °F 78% 30.14 in 10.0 mi East 6.9 mph - N/A   Overcast
12:15 PM 69.8 °F 62.6 °F 78% 30.14 in 10.0 mi ENE 3.5 mph - N/A   Overcast
12:34 PM 71.6 °F 62.6 °F 73% 30.14 in 10.0 mi East 3.5 mph - N/A   Overcast
12:55 PM 71.6 °F 62.6 °F 73% 30.14 in 10.0 mi East 3.5 mph - N/A   Mostly Cloudy
1:15 PM 71.6 °F 62.6 °F 73% 30.14 in 10.0 mi ENE 3.5 mph - N/A   Mostly Cloudy
1:34 PM 73.4 °F 60.8 °F 65% 30.13 in 10.0 mi NE 5.8 mph - N/A   Scattered Clouds
1:55 PM 73.4 °F 62.6 °F 69% 30.12 in 10.0 mi ESE 3.5 mph - N/A   Mostly Cloudy
2:15 PM 73.4 °F 60.8 °F 65% 30.12 in 10.0 mi East 4.6 mph - N/A   Mostly Cloudy
2:34 PM 75.2 °F 60.8 °F 61% 30.12 in 10.0 mi East 4.6 mph - N/A   Mostly Cloudy
2:55 PM 75.2 °F 60.8 °F 61% 30.12 in 10.0 mi Calm Calm - N/A   Scattered Clouds
3:15 PM 75.2 °F 59.0 °F 57% 30.11 in 10.0 mi Calm Calm - N/A   Scattered Clouds
3:34 PM 75.2 °F 59.0 °F 57% 30.10 in 10.0 mi Calm Calm - N/A   Scattered Clouds
3:55 PM 75.2 °F 60.8 °F 61% 30.10 in 10.0 mi East 3.5 mph - N/A   Scattered Clouds
4:15 PM 75.2 °F 59.0 °F 57% 30.09 in 10.0 mi East 5.8 mph - N/A   Scattered Clouds
4:34 PM 77.0 °F 60.8 °F 57% 30.09 in 10.0 mi NNE 5.8 mph - N/A   Unknown
4:55 PM 77.0 °F 59.0 °F 54% 30.09 in 10.0 mi ENE 4.6 mph - N/A   Unknown
5:15 PM 75.2 °F 57.2 °F 53% 30.09 in 10.0 mi Calm Calm - N/A   Unknown
5:34 PM 77.0 °F 57.2 °F 50% 30.08 in 10.0 mi NNE 3.5 mph - N/A   Unknown
5:55 PM 77.0 °F 57.2 °F 50% 30.08 in 10.0 mi ENE 4.6 mph - N/A   Unknown
6:14 PM 75.2 °F 57.2 °F 53% 30.08 in 10.0 mi Calm Calm - N/A   Unknown
6:35 PM 73.4 °F 59.0 °F 61% 30.08 in 10.0 mi East 3.5 mph - N/A   Unknown
6:55 PM 73.4 °F 60.8 °F 65% 30.08 in 10.0 mi ENE 3.5 mph - N/A   Unknown
7:14 PM 71.6 °F 60.8 °F 69% 30.08 in 10.0 mi ENE 3.5 mph - N/A   Unknown
7:35 PM 71.6 °F 62.6 °F 73% 30.08 in 10.0 mi Calm Calm - N/A   Unknown
7:54 PM 71.6 °F 60.8 °F 69% 30.08 in 10.0 mi ENE 3.5 mph - N/A   Clear
8:14 PM 69.8 °F 60.8 °F 73% 30.09 in 10.0 mi Calm Calm - N/A   Clear
8:35 PM 66.2 °F 62.6 °F 88% 30.08 in 10.0 mi ENE 4.6 mph - N/A   Clear
8:54 PM 66.2 °F 62.6 °F 88% 30.09 in 10.0 mi ENE 4.6 mph - N/A   Clear
9:14 PM 66.2 °F 60.8 °F 83% 30.10 in 10.0 mi ENE 4.6 mph - N/A   Scattered Clouds
9:35 PM 66.2 °F 60.8 °F 83% 30.10 in 10.0 mi ENE 6.9 mph - N/A   Unknown
9:54 PM 66.2 °F 60.8 °F 83% 30.10 in 10.0 mi ENE 5.8 mph - N/A   Unknown
10:14 PM 66.2 °F 60.8 °F 83% 30.10 in 10.0 mi ENE 4.6 mph - N/A   Unknown
10:35 PM 64.4 °F 60.8 °F 88% 30.10 in 10.0 mi ENE 4.6 mph - N/A   Mostly Cloudy
10:54 PM 64.4 °F 60.8 °F 88% 30.10 in 10.0 mi East 4.6 mph - N/A   Mostly Cloudy
11:14 PM 64.4 °F 60.8 °F 88% 30.10 in 10.0 mi East 3.5 mph - N/A   Scattered Clouds
11:35 PM 62.6 °F 60.8 °F 94% 30.10 in 10.0 mi East 3.5 mph - N/A   Unknown
11:54 PM 64.4 °F 60.8 °F 88% 30.10 in 10.0 mi ESE 4.6 mph - N/A   Unknown